Wetterdaten: Woche 09.01.12 - 15.01.12 (KW2)
Datum Zeit Temperatur Luftfeuchte Luftdruck Niederschlag Windrichtung Sonnenschein Solar Wind
09.01.2012 00:00 1,8 C 93 % 1025,4 hPa 0,0 l/m W-NW 0,00 h 0 W/m 12,3 km/h (3 Bft)
09.01.2012 01:00 1,7 C 93 % 1025,9 hPa 0,0 l/m W 0,00 h 0 W/m 10,3 km/h (2 Bft)
09.01.2012 02:00 1,6 C 93 % 1026,7 hPa 0,0 l/m W-NW 0,00 h 0 W/m 9,9 km/h (2 Bft)
09.01.2012 03:00 1,5 C 93 % 1027,2 hPa 0,0 l/m W-NW 0,00 h 0 W/m 10,7 km/h (2 Bft)
09.01.2012 04:00 1,3 C 93 % 1027,5 hPa 0,0 l/m W-SW 0,00 h 0 W/m 5,7 km/h (1 Bft)
09.01.2012 05:00 1,2 C 94 % 1028,0 hPa 0,0 l/m W-SW 0,00 h 0 W/m 6,4 km/h (2 Bft)
09.01.2012 06:00 1,3 C 94 % 1028,4 hPa 0,0 l/m W-SW 0,00 h 0 W/m 8,6 km/h (2 Bft)
09.01.2012 07:00 1,6 C 94 % 1029,0 hPa 0,0 l/m W-NW 0,00 h 0 W/m 9,4 km/h (2 Bft)
09.01.2012 08:00 1,5 C 94 % 1029,2 hPa 0,0 l/m SW 0,00 h 8 W/m 9,8 km/h (2 Bft)
09.01.2012 09:00 1,3 C 94 % 1029,6 hPa 0,0 l/m SW 0,00 h 22 W/m 8,6 km/h (2 Bft)
09.01.2012 10:00 1,6 C 95 % 1029,8 hPa 0,0 l/m W-SW 0,00 h 41 W/m 12,0 km/h (2 Bft)
09.01.2012 11:00 2,1 C 94 % 1030,0 hPa 0,0 l/m W-SW 0,00 h 77 W/m 13,6 km/h (3 Bft)
09.01.2012 12:00 3,0 C 92 % 1029,9 hPa 0,0 l/m W-SW 0,00 h 82 W/m 15,7 km/h (3 Bft)
09.01.2012 13:00 3,4 C 90 % 1029,6 hPa 0,0 l/m W-SW 0,00 h 78 W/m 15,0 km/h (3 Bft)
09.01.2012 14:00 3,2 C 92 % 1029,7 hPa 0,2 l/m W-SW 0,00 h 51 W/m 14,1 km/h (3 Bft)
09.01.2012 15:00 2,9 C 94 % 1029,7 hPa 0,0 l/m W-SW 0,00 h 19 W/m 15,0 km/h (3 Bft)
09.01.2012 16:00 2,8 C 94 % 1029,9 hPa 0,4 l/m W-SW 0,00 h 7 W/m 16,8 km/h (3 Bft)
09.01.2012 17:00 2,6 C 95 % 1030,4 hPa 0,2 l/m W-SW 0,00 h 0 W/m 16,2 km/h (3 Bft)
09.01.2012 18:00 2,7 C 95 % 1030,7 hPa 0,0 l/m W-SW 0,00 h 0 W/m 16,5 km/h (3 Bft)
09.01.2012 19:00 2,8 C 96 % 1031,1 hPa 0,2 l/m SW 0,00 h 0 W/m 18,8 km/h (3 Bft)
09.01.2012 20:00 3,0 C 96 % 1031,5 hPa 0,0 l/m W-SW 0,00 h 0 W/m 14,5 km/h (3 Bft)
09.01.2012 21:00 3,2 C 95 % 1031,6 hPa 0,0 l/m W-SW 0,00 h 0 W/m 16,8 km/h (3 Bft)
09.01.2012 22:00 3,2 C 95 % 1031,7 hPa 0,0 l/m W-SW 0,00 h 0 W/m 17,4 km/h (3 Bft)
09.01.2012 23:00 3,2 C 95 % 1031,8 hPa 0,2 l/m W-SW 0,00 h 0 W/m 20,5 km/h (4 Bft)
10.01.2012 00:00 3,2 C 95 % 1031,7 hPa 0,0 l/m W-SW 0,00 h 0 W/m 17,2 km/h (3 Bft)
10.01.2012 01:00 3,3 C 95 % 1032,0 hPa 0,2 l/m W 0,00 h 0 W/m 17,8 km/h (3 Bft)
10.01.2012 02:00 3,3 C 96 % 1032,0 hPa 0,0 l/m W-SW 0,00 h 0 W/m 19,0 km/h (3 Bft)
10.01.2012 03:00 3,3 C 95 % 1032,0 hPa 0,0 l/m SW 0,00 h 0 W/m 16,1 km/h (3 Bft)
10.01.2012 04:00 3,4 C 96 % 1031,8 hPa 0,2 l/m W-SW 0,00 h 0 W/m 16,2 km/h (3 Bft)
10.01.2012 05:00 3,5 C 96 % 1031,8 hPa 0,2 l/m W 0,00 h 0 W/m 14,0 km/h (3 Bft)
10.01.2012 06:00 3,6 C 96 % 1032,0 hPa 0,2 l/m W 0,00 h 0 W/m 14,2 km/h (3 Bft)
10.01.2012 07:00 3,7 C 96 % 1032,6 hPa 0,0 l/m W-SW 0,00 h 0 W/m 11,0 km/h (2 Bft)
10.01.2012 08:00 3,7 C 95 % 1032,9 hPa 0,0 l/m W 0,00 h 9 W/m 9,7 km/h (2 Bft)
10.01.2012 09:00 3,7 C 95 % 1033,8 hPa 0,0 l/m W-SW 0,00 h 17 W/m 3,1 km/h (1 Bft)
10.01.2012 10:00 3,9 C 96 % 1034,0 hPa 0,0 l/m S 0,00 h 37 W/m 5,7 km/h (1 Bft)
10.01.2012 11:00 4,2 C 96 % 1034,3 hPa 0,0 l/m S 0,00 h 52 W/m 4,7 km/h (1 Bft)
10.01.2012 12:00 4,8 C 96 % 1034,1 hPa 0,0 l/m SW 0,00 h 61 W/m 7,4 km/h (2 Bft)
10.01.2012 13:00 5,3 C 96 % 1033,7 hPa 0,0 l/m SW 0,17 h 128 W/m 9,3 km/h (2 Bft)
10.01.2012 14:00 4,9 C 96 % 1033,8 hPa 0,0 l/m S-SW 0,00 h 54 W/m 11,7 km/h (2 Bft)
10.01.2012 15:00 4,8 C 97 % 1034,1 hPa 0,0 l/m S-SW 0,00 h 43 W/m 10,1 km/h (2 Bft)
10.01.2012 16:00 4,6 C 97 % 1034,4 hPa 0,0 l/m S-SW 0,00 h 11 W/m 7,6 km/h (2 Bft)
10.01.2012 17:00 3,9 C 96 % 1034,6 hPa 0,2 l/m S-SW 0,00 h 0 W/m 2,8 km/h (1 Bft)
10.01.2012 18:00 3,1 C 97 % 1034,7 hPa 0,0 l/m S-SW 0,00 h 0 W/m 4,3 km/h (1 Bft)
10.01.2012 19:00 2,9 C 97 % 1034,3 hPa 0,0 l/m N 0,00 h 0 W/m 1,6 km/h (1 Bft)
10.01.2012 20:00 2,6 C 97 % 1034,4 hPa 0,0 l/m N 0,00 h 0 W/m 0,4 km/h (0 Bft)
10.01.2012 21:00 2,4 C 97 % 1034,3 hPa 0,0 l/m N 0,00 h 0 W/m 0,0 km/h (0 Bft)
10.01.2012 22:00 1,7 C 97 % 1034,2 hPa 0,0 l/m W-SW 0,00 h 0 W/m 0,9 km/h (0 Bft)
10.01.2012 23:00 1,0 C 98 % 1034,4 hPa 0,0 l/m N 0,00 h 0 W/m 0,8 km/h (0 Bft)
11.01.2012 00:00 0,4 C 98 % 1034,5 hPa 0,0 l/m N 0,00 h 0 W/m 0,1 km/h (0 Bft)
11.01.2012 01:00 0,6 C 98 % 1034,3 hPa 0,0 l/m N 0,00 h 0 W/m 0,7 km/h (0 Bft)
11.01.2012 02:00 0,3 C 98 % 1034,3 hPa 0,0 l/m W-SW 0,00 h 0 W/m 3,3 km/h (1 Bft)
11.01.2012 03:00 -0,3 C 98 % 1034,2 hPa 0,0 l/m N 0,00 h 0 W/m 1,1 km/h (0 Bft)
11.01.2012 04:00 -0,7 C 98 % 1034,2 hPa 0,0 l/m W-SW 0,00 h 0 W/m 3,6 km/h (1 Bft)
11.01.2012 05:00 -0,9 C 98 % 1033,9 hPa 0,0 l/m N 0,00 h 0 W/m 1,3 km/h (1 Bft)
11.01.2012 06:00 -0,9 C 98 % 1034,1 hPa 0,0 l/m NW 0,00 h 0 W/m 3,3 km/h (1 Bft)
11.01.2012 07:00 -0,9 C 98 % 1034,0 hPa 0,0 l/m N 0,00 h 0 W/m 1,3 km/h (1 Bft)
11.01.2012 08:00 -1,3 C 98 % 1034,4 hPa 0,0 l/m NW 0,00 h 12 W/m 2,1 km/h (1 Bft)
11.01.2012 09:00 -1,5 C 98 % 1035,2 hPa 0,0 l/m N 0,00 h 53 W/m 1,1 km/h (0 Bft)
11.01.2012 10:00 -1,2 C 99 % 1036,0 hPa 0,0 l/m W-NW 0,00 h 70 W/m 3,9 km/h (1 Bft)
11.01.2012 11:00 -0,4 C 99 % 1035,9 hPa 0,0 l/m SW 0,00 h 91 W/m 9,4 km/h (2 Bft)
11.01.2012 12:00 0,1 C 99 % 1035,9 hPa 0,0 l/m S-SW 0,00 h 81 W/m 10,9 km/h (2 Bft)
11.01.2012 13:00 0,4 C 99 % 1035,7 hPa 0,0 l/m S-SW 0,00 h 66 W/m 9,5 km/h (2 Bft)
11.01.2012 14:00 0,6 C 99 % 1035,4 hPa 0,0 l/m S-SW 0,00 h 45 W/m 11,7 km/h (2 Bft)
11.01.2012 15:00 0,7 C 99 % 1035,5 hPa 0,0 l/m S-SW 0,00 h 34 W/m 12,4 km/h (3 Bft)
11.01.2012 16:00 0,8 C 99 % 1035,5 hPa 0,0 l/m S-SW 0,00 h 8 W/m 10,9 km/h (2 Bft)
11.01.2012 17:00 0,9 C 99 % 1035,5 hPa 0,0 l/m SW 0,00 h 0 W/m 10,2 km/h (2 Bft)
11.01.2012 18:00 0,8 C 99 % 1035,7 hPa 0,0 l/m SW 0,00 h 0 W/m 8,2 km/h (2 Bft)
11.01.2012 19:00 0,8 C 99 % 1035,8 hPa 0,0 l/m S-SW 0,00 h 0 W/m 4,8 km/h (1 Bft)
11.01.2012 20:00 0,6 C 99 % 1036,0 hPa 0,0 l/m S-SW 0,00 h 0 W/m 7,8 km/h (2 Bft)
11.01.2012 21:00 0,2 C 99 % 1035,6 hPa 0,0 l/m S-SW 0,00 h 0 W/m 9,8 km/h (2 Bft)
11.01.2012 22:00 -0,2 C 99 % 1035,2 hPa 0,0 l/m SW 0,00 h 0 W/m 10,6 km/h (2 Bft)
11.01.2012 23:00 -0,4 C 99 % 1035,0 hPa 0,0 l/m SW 0,00 h 0 W/m 6,4 km/h (2 Bft)
12.01.2012 00:00 -0,7 C 99 % 1034,4 hPa 0,0 l/m SW 0,00 h 0 W/m 3,9 km/h (1 Bft)
12.01.2012 01:00 -0,9 C 99 % 1033,9 hPa 0,0 l/m SW 0,00 h 0 W/m 3,9 km/h (1 Bft)
12.01.2012 02:00 -1,1 C 99 % 1033,6 hPa 0,0 l/m SW 0,00 h 0 W/m 5,1 km/h (1 Bft)
12.01.2012 03:00 -1,3 C 99 % 1033,4 hPa 0,0 l/m SW 0,00 h 0 W/m 4,7 km/h (1 Bft)
12.01.2012 04:00 -1,7 C 99 % 1032,9 hPa 0,0 l/m SW 0,00 h 0 W/m 6,0 km/h (2 Bft)
12.01.2012 05:00 -1,7 C 99 % 1032,2 hPa 0,0 l/m SW 0,00 h 0 W/m 7,4 km/h (2 Bft)
12.01.2012 06:00 -1,5 C 99 % 1031,7 hPa 0,0 l/m SW 0,00 h 0 W/m 6,7 km/h (2 Bft)
12.01.2012 07:00 -1,4 C 99 % 1031,2 hPa 0,0 l/m SW 0,00 h 0 W/m 7,1 km/h (2 Bft)
12.01.2012 08:00 -1,2 C 99 % 1030,9 hPa 0,0 l/m SW 0,00 h 7 W/m 8,3 km/h (2 Bft)
12.01.2012 09:00 -0,8 C 99 % 1030,8 hPa 0,0 l/m SW 0,00 h 18 W/m 11,5 km/h (2 Bft)
12.01.2012 10:00 -0,5 C 99 % 1030,7 hPa 0,0 l/m W-SW 0,00 h 35 W/m 13,7 km/h (3 Bft)
12.01.2012 11:00 -0,3 C 99 % 1030,2 hPa 0,0 l/m W-SW 0,00 h 48 W/m 14,6 km/h (3 Bft)
12.01.2012 12:00 -0,5 C 99 % 1029,1 hPa 0,0 l/m SW 0,00 h 62 W/m 15,8 km/h (3 Bft)
12.01.2012 13:00 -0,2 C 99 % 1028,3 hPa 0,0 l/m SW 0,00 h 59 W/m 12,9 km/h (3 Bft)
12.01.2012 14:00 0,2 C 99 % 1027,2 hPa 0,0 l/m W-SW 0,00 h 39 W/m 10,6 km/h (2 Bft)
12.01.2012 15:00 0,3 C 98 % 1026,9 hPa 0,0 l/m W 0,00 h 37 W/m 10,6 km/h (2 Bft)
12.01.2012 16:00 0,1 C 98 % 1026,6 hPa 0,0 l/m W-SW 0,00 h 9 W/m 12,6 km/h (3 Bft)
12.01.2012 17:00 0,1 C 97 % 1026,5 hPa 0,0 l/m W-SW 0,00 h 0 W/m 13,6 km/h (3 Bft)
12.01.2012 18:00 0,1 C 97 % 1026,8 hPa 0,0 l/m W 0,00 h 0 W/m 11,4 km/h (2 Bft)
12.01.2012 19:00 0,5 C 97 % 1027,2 hPa 0,0 l/m W-NW 0,00 h 0 W/m 11,9 km/h (2 Bft)
12.01.2012 20:00 0,7 C 96 % 1027,4 hPa 0,0 l/m W-SW 0,00 h 0 W/m 14,6 km/h (3 Bft)
12.01.2012 21:00 0,8 C 96 % 1027,5 hPa 0,0 l/m S-SW 0,00 h 0 W/m 14,8 km/h (3 Bft)
12.01.2012 22:00 0,6 C 96 % 1027,5 hPa 0,0 l/m SW 0,00 h 0 W/m 13,8 km/h (3 Bft)
12.01.2012 23:00 0,7 C 95 % 1027,2 hPa 0,0 l/m W-SW 0,00 h 0 W/m 19,6 km/h (3 Bft)
13.01.2012 00:00 0,8 C 95 % 1026,8 hPa 0,0 l/m SW 0,00 h 0 W/m 16,8 km/h (3 Bft)
13.01.2012 01:00 1,1 C 95 % 1026,6 hPa 0,0 l/m W-SW 0,00 h 0 W/m 16,0 km/h (3 Bft)
13.01.2012 02:00 1,3 C 95 % 1026,8 hPa 0,0 l/m W-SW 0,00 h 0 W/m 13,0 km/h (3 Bft)
13.01.2012 03:00 1,4 C 95 % 1027,0 hPa 0,0 l/m W-SW 0,00 h 0 W/m 11,0 km/h (2 Bft)
13.01.2012 04:00 1,4 C 95 % 1027,1 hPa 0,0 l/m W-SW 0,00 h 0 W/m 5,5 km/h (1 Bft)
13.01.2012 05:00 1,1 C 95 % 1027,1 hPa 0,0 l/m W-SW 0,00 h 0 W/m 3,2 km/h (1 Bft)
13.01.2012 06:00 0,9 C 96 % 1027,1 hPa 0,2 l/m W 0,00 h 0 W/m 3,9 km/h (1 Bft)
13.01.2012 07:00 0,6 C 96 % 1027,1 hPa 0,0 l/m W 0,00 h 0 W/m 5,7 km/h (1 Bft)
13.01.2012 08:00 0,3 C 96 % 1027,2 hPa 0,0 l/m W 0,08 h 12 W/m 7,2 km/h (2 Bft)
13.01.2012 09:00 0,6 C 94 % 1027,5 hPa 0,0 l/m W-NW 0,00 h 29 W/m 12,8 km/h (3 Bft)
13.01.2012 10:00 1,8 C 88 % 1027,2 hPa 0,0 l/m W-NW 1,00 h 216 W/m 16,6 km/h (3 Bft)
13.01.2012 11:00 3,1 C 82 % 1027,1 hPa 0,0 l/m W-NW 1,00 h 318 W/m 20,1 km/h (4 Bft)
13.01.2012 12:00 4,3 C 74 % 1026,6 hPa 0,0 l/m W-NW 0,92 h 373 W/m 18,6 km/h (3 Bft)
13.01.2012 13:00 4,3 C 68 % 1026,2 hPa 0,0 l/m W-NW 0,75 h 317 W/m 23,4 km/h (4 Bft)
13.01.2012 14:00 4,5 C 64 % 1025,7 hPa 0,0 l/m W-NW 1,00 h 286 W/m 27,8 km/h (4 Bft)
13.01.2012 15:00 3,8 C 68 % 1025,9 hPa 0,0 l/m W-NW 0,25 h 87 W/m 26,8 km/h (4 Bft)
13.01.2012 16:00 3,0 C 73 % 1026,2 hPa 0,0 l/m W 0,67 h 34 W/m 21,7 km/h (4 Bft)
13.01.2012 17:00 2,1 C 79 % 1026,7 hPa 0,0 l/m W-NW 0,00 h 5 W/m 16,1 km/h (3 Bft)
13.01.2012 18:00 1,5 C 84 % 1027,3 hPa 0,0 l/m W-NW 0,00 h 0 W/m 11,7 km/h (2 Bft)
13.01.2012 19:00 0,9 C 88 % 1027,7 hPa 0,0 l/m W-NW 0,00 h 0 W/m 13,0 km/h (3 Bft)
13.01.2012 20:00 0,3 C 89 % 1027,8 hPa 0,0 l/m W-NW 0,00 h 0 W/m 7,4 km/h (2 Bft)
13.01.2012 21:00 -0,3 C 88 % 1027,7 hPa 0,0 l/m NW 0,00 h 0 W/m 5,0 km/h (1 Bft)
13.01.2012 22:00 -1,0 C 88 % 1027,6 hPa 0,0 l/m N 0,00 h 0 W/m 1,3 km/h (1 Bft)
13.01.2012 23:00 -1,8 C 91 % 1027,4 hPa 0,0 l/m W-NW 0,00 h 0 W/m 4,0 km/h (1 Bft)
14.01.2012 00:00 -1,8 C 92 % 1027,3 hPa 0,0 l/m W-NW 0,00 h 0 W/m 2,8 km/h (1 Bft)
14.01.2012 01:00 -2,4 C 92 % 1027,4 hPa 0,0 l/m N 0,00 h 0 W/m 0,5 km/h (0 Bft)
14.01.2012 02:00 -2,4 C 93 % 1027,5 hPa 0,0 l/m N 0,00 h 0 W/m 0,7 km/h (0 Bft)
14.01.2012 03:00 -2,3 C 94 % 1027,3 hPa 0,0 l/m W-NW 0,00 h 0 W/m 1,2 km/h (1 Bft)
14.01.2012 04:00 -1,6 C 92 % 1027,2 hPa 0,0 l/m W-NW 0,00 h 0 W/m 8,1 km/h (2 Bft)
14.01.2012 05:00 -0,5 C 83 % 1026,9 hPa 0,0 l/m W 0,00 h 0 W/m 9,4 km/h (2 Bft)
14.01.2012 06:00 -0,3 C 79 % 1026,8 hPa 0,0 l/m W-SW 0,00 h 0 W/m 6,0 km/h (2 Bft)
14.01.2012 07:00 -0,6 C 79 % 1026,9 hPa 0,0 l/m N 0,00 h 0 W/m 2,4 km/h (1 Bft)
14.01.2012 08:00 -0,9 C 85 % 1027,0 hPa 0,0 l/m N 0,00 h 9 W/m 0,7 km/h (0 Bft)
14.01.2012 09:00 -1,2 C 89 % 1027,1 hPa 0,0 l/m W-SW 0,00 h 30 W/m 0,9 km/h (0 Bft)
14.01.2012 10:00 -0,7 C 90 % 1027,1 hPa 0,0 l/m N 0,00 h 77 W/m 0,9 km/h (0 Bft)
14.01.2012 11:00 0,2 C 87 % 1026,9 hPa 0,0 l/m W-SW 0,00 h 112 W/m 2,3 km/h (1 Bft)
14.01.2012 12:00 0,7 C 78 % 1026,3 hPa 0,0 l/m W 0,25 h 142 W/m 4,3 km/h (1 Bft)
14.01.2012 13:00 1,3 C 70 % 1025,7 hPa 0,0 l/m N 0,00 h 116 W/m 6,3 km/h (2 Bft)
14.01.2012 14:00 1,3 C 70 % 1025,3 hPa 0,0 l/m N-NO 0,00 h 92 W/m 3,3 km/h (1 Bft)
14.01.2012 15:00 1,5 C 68 % 1025,3 hPa 0,0 l/m N-NO 0,58 h 110 W/m 4,0 km/h (1 Bft)
14.01.2012 16:00 1,9 C 60 % 1025,2 hPa 0,0 l/m O-NO 0,67 h 34 W/m 3,9 km/h (1 Bft)
14.01.2012 17:00 0,6 C 66 % 1025,2 hPa 0,0 l/m N 0,00 h 0 W/m 1,5 km/h (1 Bft)
14.01.2012 18:00 -1,1 C 74 % 1025,7 hPa 0,0 l/m O-SO 0,00 h 0 W/m 1,7 km/h (1 Bft)
14.01.2012 19:00 -2,0 C 80 % 1025,6 hPa 0,0 l/m N 0,00 h 0 W/m 0,9 km/h (0 Bft)
14.01.2012 20:00 -2,7 C 84 % 1025,5 hPa 0,0 l/m N 0,00 h 0 W/m 0,7 km/h (0 Bft)
14.01.2012 21:00 -3,4 C 87 % 1025,4 hPa 0,0 l/m N 0,00 h 0 W/m 0,7 km/h (0 Bft)
14.01.2012 22:00 -3,9 C 89 % 1025,6 hPa 0,0 l/m N 0,00 h 0 W/m 0,3 km/h (0 Bft)
14.01.2012 23:00 -4,3 C 90 % 1025,4 hPa 0,0 l/m N 0,00 h 0 W/m 0,0 km/h (0 Bft)
15.01.2012 00:00 -4,8 C 91 % 1024,8 hPa 0,0 l/m N 0,00 h 0 W/m 0,3 km/h (0 Bft)
15.01.2012 01:00 -5,2 C 92 % 1024,5 hPa 0,0 l/m N 0,00 h 0 W/m 0,5 km/h (0 Bft)
15.01.2012 02:00 -5,4 C 92 % 1024,4 hPa 0,0 l/m N 0,00 h 0 W/m 0,0 km/h (0 Bft)
15.01.2012 03:00 -5,8 C 92 % 1024,5 hPa 0,0 l/m N 0,00 h 0 W/m 0,1 km/h (0 Bft)
15.01.2012 04:00 -5,9 C 93 % 1024,2 hPa 0,0 l/m N 0,00 h 0 W/m 0,9 km/h (0 Bft)
15.01.2012 05:00 -5,8 C 93 % 1024,3 hPa 0,0 l/m N 0,00 h 0 W/m 0,1 km/h (0 Bft)
15.01.2012 06:00 -5,9 C 93 % 1024,5 hPa 0,0 l/m N 0,00 h 0 W/m 1,7 km/h (1 Bft)
15.01.2012 07:00 -5,8 C 94 % 1024,7 hPa 0,0 l/m N 0,00 h 0 W/m 0,9 km/h (0 Bft)
15.01.2012 08:00 -5,6 C 94 % 1024,9 hPa 0,0 l/m O 0,08 h 15 W/m 2,5 km/h (1 Bft)
15.01.2012 09:00 -3,9 C 96 % 1024,9 hPa 0,0 l/m O 0,00 h 37 W/m 8,2 km/h (2 Bft)
15.01.2012 10:00 -2,9 C 96 % 1025,0 hPa 0,0 l/m O 0,00 h 87 W/m 7,1 km/h (2 Bft)
15.01.2012 11:00 -2,0 C 95 % 1024,9 hPa 0,0 l/m O 0,67 h 235 W/m 8,0 km/h (2 Bft)
15.01.2012 12:00 -0,8 C 91 % 1024,3 hPa 0,0 l/m NO 1,00 h 367 W/m 8,8 km/h (2 Bft)
15.01.2012 13:00 0,3 C 83 % 1023,5 hPa 0,0 l/m O 0,83 h 291 W/m 14,8 km/h (3 Bft)
15.01.2012 14:00 1,1 C 75 % 1023,0 hPa 0,0 l/m O-NO 1,00 h 255 W/m 15,2 km/h (3 Bft)
15.01.2012 15:00 1,1 C 72 % 1022,8 hPa 0,0 l/m O 0,83 h 125 W/m 12,8 km/h (3 Bft)
15.01.2012 16:00 0,4 C 74 % 1022,9 hPa 0,0 l/m O-NO 0,00 h 22 W/m 11,0 km/h (2 Bft)
15.01.2012 17:00 -0,7 C 78 % 1023,0 hPa 0,0 l/m O-NO 0,00 h 0 W/m 8,3 km/h (2 Bft)
15.01.2012 18:00 -1,5 C 82 % 1023,3 hPa 0,0 l/m O-NO 0,00 h 0 W/m 8,6 km/h (2 Bft)
15.01.2012 19:00 -2,0 C 86 % 1023,4 hPa 0,0 l/m O-NO 0,00 h 0 W/m 9,8 km/h (2 Bft)
15.01.2012 20:00 -2,6 C 88 % 1023,7 hPa 0,0 l/m NO 0,00 h 0 W/m 8,0 km/h (2 Bft)
15.01.2012 21:00 -3,0 C 90 % 1023,6 hPa 0,0 l/m O-NO 0,00 h 0 W/m 9,8 km/h (2 Bft)
15.01.2012 22:00 -3,3 C 89 % 1023,6 hPa 0,0 l/m O-NO 0,00 h 0 W/m 9,5 km/h (2 Bft)
15.01.2012 23:00 -3,6 C 89 % 1023,6 hPa 0,0 l/m O-NO 0,00 h 0 W/m 12,9 km/h (3 Bft)
Min-Datum _ 15.01.12 14.01.12 15.01.12 - - - - 09.01.12
_ Min-Zeit 04:25 16:10 15:35 - - - - 04:35
Minimum _ -6,0 C 58 % 1022,6 hPa - - - - 0,0 km/h (0 Bft)
Max-Datum _ 10.01.12 13.01.12 11.01.12 09.01.12 - 10.01.12 13.01.12 13.01.12
_ Max-Zeit 13:30 06:10 10:45 16:20 - 13:25 12:45 14:25
Maximum _ 5,4 C 100 % 1036,3 hPa 0,4 l/m - 0,08 h 462 W/m 37,0 km/h
W-NW (5 Bft)
Durchschnitt _ 0,4 C 92 % 1029,3 hPa #2,4 l/m W-SW #11:45 h 84 W/m 8,6 km/h (2 Bft)